Location: Doln� Jel?any
(49.9270°N, 15.0491°E)
Time: 04:31:07
(UTC+00:00)

Daily predictions for brighter satellites

Satellite Brightness Start Highest point End
(mag) Time Altitude Azimuth Time Altitude Azimuth Time Altitude Azimuth
NOSS 8 (E) 4.2 00:02:07 31° SW 00:03:28 74° NW 00:06:25 10° NE
Cosmos 1825 2.1 00:13:02 29° SSW 00:14:51 77° W 00:18:38 10° N
ATLAS CENTAUR R/B 4.5 00:08:51 10° WSW 00:15:32 72° NNW 00:34:16 10° ENE
Cosmos 1076 Rocket 4.5 00:12:59 17° SSE 00:15:48 40° E 00:19:48 10° NNE
Cosmos 540 Rocket 3.6 00:15:11 23° S 00:18:21 66° ESE 00:23:27 10° NNE
Cosmos 1408 3.5 00:19:18 23° SW 00:21:03 37° WNW 00:24:31 10° N
NOSS 2-2 (E) 4.4 00:20:41 20° SSE 00:22:02 26° ESE 00:25:12 10° ENE
Cosmos 1437 3.5 00:20:00 10° N 00:22:39 39° ENE 00:24:28 17° SE
Cosmos 1242 Rocket 2.5 00:20:15 10° N 00:23:51 81° ENE 00:26:09 21° SSE
SL-16 R/B 3.5 00:20:13 10° WSW 00:25:22 34° NW 00:30:32 10° NNE
Cosmos 405 Rocket 3.0 00:23:36 25° SW 00:25:25 51° WNW 00:29:03 10° N
Cosmos 2221 2.5 00:21:26 10° NNW 00:25:44 72° W 00:28:23 22° S
Cosmos 1656 Rocket 3.8 00:20:15 10° NW 00:25:51 59° WSW 00:30:16 16° S
Cosmos 841 Rocket 3.6 00:23:03 21° S 00:26:24 66° ESE 00:31:31 10° NNE
Cosmos 2058 2.8 00:24:22 25° SSW 00:26:40 78° W 00:30:47 10° N
USA 229 DEB 3.7 00:22:35 15° SW 00:28:04 77° NW 00:35:04 10° NE
USA 229 3.7 00:22:42 15° SW 00:28:10 77° NW 00:35:10 10° NE
X-37B 1.2 00:28:47 32° SSW 00:29:11 33° S 00:32:05 10° ESE
Cosmos 1898 Rocket 4.1 00:28:24 10° NW 00:33:13 38° WSW 00:36:10 20° SSW
Cosmos 1937 Rocket 3.8 00:28:27 10° NNW 00:33:37 51° WSW 00:37:19 18° S
Nadezhda 4 Rocket 4.0 00:30:48 19° SSW 00:35:18 79° W 00:41:28 10° N
NOSS 2-2 (C) 4.4 00:34:05 19° SSE 00:35:40 28° ESE 00:38:50 10° ENE
Cosmos 2369 Rocket 3.0 00:30:41 10° NW 00:35:45 34° WSW 00:38:58 19° SSW
Meteor 2-15 4.5 00:29:44 10° N 00:35:56 88° E 00:41:34 12° S
NOSS 3-1 (C) 4.1 00:31:33 10° WSW 00:36:59 50° NW 00:43:29 10° NE
Aureole 3 Rocket 3.1 00:33:38 10° N 00:37:26 83° E 00:41:59 13° S
USA 307 3.8 00:38:07 21° S 00:40:08 32° SE 00:43:57 10° ENE
FALCON 9 DEB 3.4 00:37:48 10° WNW 00:40:55 61° NNE 00:44:01 10° E
CREW DRAGON DEMO-1 DEB 2.2 00:40:05 24° W 00:41:22 81° NNW 00:43:49 10° ENE
ARGOS Delta rocket 4.2 00:37:02 10° NNE 00:42:34 85° ESE 00:46:49 17° S
USA 215 4.1 00:37:31 10° ENE 00:43:49 52° N 00:50:07 10° W
NOSS 3-1 (A) 3.7 00:42:41 12° WSW 00:47:45 63° NW 00:54:19 10° NE
CZ-4 R/B 4.4 00:45:42 10° N 00:50:11 47° WNW 00:53:33 17° SW
ATLAS 5 CENTAUR R/B 2.1 00:48:04 19° S 00:50:31 41° ESE 00:54:40 10° NE
Helios 1B rocket 2.7 00:46:58 10° NNE 00:51:03 64° ESE 00:54:08 17° S
Cosmos 2298 Rocket 4.4 00:46:18 10° NNW 00:51:39 67° ENE 00:56:56 10° SSE
ADEOS Rocket 3.5 00:48:24 10° SSE 00:55:37 75° ENE 01:02:09 10° NNW
Cosmos 1633 2.4 00:53:22 20° S 00:55:40 90° W 00:59:13 10° N
Cosmos 1814 Rocket 4.0 00:51:51 18° SSW 00:55:49 79° ESE 01:01:00 10° NNE
USA 308 3.5 00:53:26 20° SSW 00:55:59 40° SE 00:59:59 10° ENE
FALCON 9 DEB 2.8 00:54:55 10° WNW 00:58:01 85° NNE 01:01:06 10° ESE
UNK 3.8 00:54:25 14° S 00:58:20 66° WSW 01:02:58 10° NNW
CZ-3B R/B 2.9 00:50:31 10° WNW 00:58:38 58° N 01:01:28 10° E
Cosmos 1606 3.2 00:58:05 10° NNW 01:01:45 43° W 01:04:12 18° SSW
Helios 1A 4.3 01:00:06 17° SW 01:02:10 24° W 01:05:35 10° NW
Cosmos 2150 Rocket 4.2 00:58:02 10° NNW 01:03:15 76° ENE 01:08:30 10° SSE
FALCON 9 DEB 2.9 01:01:40 10° WNW 01:04:47 80° NNE 01:07:55 10° ESE
SL-16 R/B 2.7 00:59:52 11° S 01:05:40 59° WSW 01:11:47 10° NNW
Cosmos 1570 Rocket 4.0 01:01:44 16° SSW 01:05:53 88° WNW 01:11:10 10° NNE
Cosmos 1933 3.4 01:03:10 10° N 01:07:17 80° ENE 01:11:22 10° SSE
FALCON 9 DEB 2.8 01:05:09 10° WNW 01:08:16 88° SSW 01:11:21 10° ESE
Cosmos 372 Rocket 4.4 01:03:36 10° NW 01:08:34 44° WSW 01:13:11 12° S
Cosmos 1125 Rocket 3.8 01:06:05 10° NNW 01:11:22 73° ENE 01:16:38 10° SSE
USA 290 2.2 01:11:15 19° SSW 01:13:28 83° WNW 01:16:43 10° NNE
USA 305 3.1 01:10:31 16° SW 01:13:46 56° SE 01:17:56 10° ENE
DELTA 2 DEB (DPAF) 4.4 01:09:50 10° SSE 01:14:16 71° ENE 01:18:42 10° N
Lacrosse 4 Rocket 1.5 01:11:12 10° NW 01:15:11 49° WSW 01:19:05 10° SSE
Meteor 1-28 Rocket 3.6 01:12:07 10° SSE 01:15:52 65° ENE 01:19:40 10° N
CZ-4C R/B 4.1 01:12:55 10° SSE 01:16:14 18° ESE 01:19:55 10° ENE
Cosmos 1092 Rocket 4.1 01:11:05 14° SSW 01:16:22 66° WNW 01:22:31 10° N
Cosmos 1151 Rocket 3.8 01:12:25 10° N 01:16:37 53° ENE 01:20:47 10° SSE
Cosmos 2098 Rocket 4.2 01:15:08 14° SW 01:19:14 36° WNW 01:23:17 10° N
ARIANE 5 R/B 4.5 01:15:32 10° NE 01:19:28 23° E 01:23:23 10° SE
CENTAUR R/B 4.0 01:11:54 10° NW 01:19:31 55° NE 01:28:05 10° ESE
Resurs 1-4 Rocket 2.4 01:14:30 10° N 01:19:44 59° WNW 01:24:23 13° SW
BREEZE-M R/B 3.3 01:18:12 15° SW 01:20:52 45° SSE 01:26:43 10° ENE
Cosmos 2208 Rocket 4.1 01:16:33 14° SSW 01:21:15 82° WNW 01:26:46 10° NNE
IRIDIUM 103 4.5 01:16:11 10° N 01:21:27 78° E 01:26:40 10° S
NOSS 5 (C) 4.4 01:18:31 10° NW 01:21:32 55° SW 01:25:07 10° SSE
Meteor 1-29 3.0 01:20:27 10° NNE 01:23:54 77° ESE 01:26:57 12° S
Cosmos 1766 Rocket 4.4 01:22:46 10° S 01:27:04 50° E 01:31:25 10° NNE
SL-4 R/B 1.8 01:23:41 10° WNW 01:27:24 77° NNE 01:30:53 10° E
Landsat 4 3.8 01:25:55 10° NNE 01:29:43 81° ESE 01:33:22 11° SSW
MINOTAUR 4 R/B 4.3 01:26:32 11° S 01:29:52 49° W 01:33:19 10° NNW
NPP 3.9 01:25:36 10° N 01:30:55 60° WNW 01:35:57 11° SSW
ADEOS II 2.1 01:26:09 10° NNE 01:31:27 89° ESE 01:36:43 10° SSW
NOSS 2-2 (D) 3.0 01:30:21 13° SW 01:33:18 84° NW 01:37:10 10° NE
Lacrosse 5 rocket 1.7 01:32:31 10° NW 01:36:04 59° NNE 01:39:42 10° ESE
USA 306 2.9 01:32:05 11° SW 01:36:07 73° SSE 01:40:22 10° ENE
Cosmos 921 Rocket 4.0 01:32:38 11° SW 01:36:16 35° WNW 01:40:08 10° N
Meteor 2-3 Rocket 3.7 01:31:35 10° SSW 01:37:11 85° WNW 01:42:49 10° NNE
FALCON 9 DEB 4.2 01:34:40 10° W 01:37:26 23° SW 01:40:11 10° SSE
Okean 3 Rocket 4.0 01:33:22 10° S 01:37:41 62° E 01:42:01 10° NNE
CZ-2D R/B 2.8 01:33:28 10° N 01:38:23 43° WNW 01:43:15 10° SW
Cosmos 1943 4.3 01:33:59 10° WSW 01:39:07 35° NW 01:44:18 10° NNE
IRIDIUM 106 4.3 01:34:31 10° N 01:39:46 76° W 01:44:58 10° S
Cosmos 1655 Rocket 4.5 01:34:10 10° S 01:40:15 61° E 01:46:24 10° NNE
Alouette 2 Rocket 3.2 01:36:47 10° NNW 01:40:21 89° WSW 01:44:23 10° SSE
IDEFIX/ARIANE 42P 2.9 01:40:37 10° NNE 01:45:52 68° ESE 01:51:04 10° S
ASTEX 1 3.6 01:40:59 10° SSE 01:45:55 77° E 01:50:51 10° N
Cosmos 2151 3.7 01:44:56 11° SW 01:48:48 40° WNW 01:52:47 10° N
AQUA 4.4 01:45:59 10° N 01:50:31 45° WNW 01:55:02 10° SW
EXPRESS MD2 4.2 01:44:07 10° WSW 01:52:36 77° SSE 01:56:39 10° E
Cosmos 2315 Rocket 4.4 01:55:44 10° N 02:01:56 67° ENE 02:08:06 10° SSE
Cosmos 1656 3.8 01:58:16 10° NNW 02:04:01 88° ENE 02:09:44 10° SSE
CBERS-1 4.1 02:00:00 10° NNE 02:05:09 76° WNW 02:10:17 10° SSW
X-37B 2.0 02:02:54 10° WSW 02:05:21 20° SSW 02:07:47 10° SSE
IRS-1D 3.7 02:00:16 10° N 02:05:22 62° WNW 02:10:20 10° SSW
BREEZE-M DEB (TANK) 1.7 02:05:14 10° W 02:07:24 43° SSW 02:10:07 10° ESE
IRS-1C 4.4 02:04:09 10° NNE 02:09:31 73° ESE 02:14:50 10° S
Cosmos 1812 2.7 02:05:46 10° NNW 02:09:37 76° W 02:13:26 10° S
Cosmos 1553 Rocket 4.4 02:03:43 10° NNW 02:09:40 45° W 02:15:30 10° SSW
